This demonstration page uses our WeatherBlox Daily Observations layout. Learn more.

Left ArrowRight Arrow

36.17497, -115.13722

Hourly Observations for January 27, 2016

Temp ( °F °C ) Dew Point ( °F °C ) Humidity (%) Winds ( mph kmh ) Pressure ( in mb ) Visibility ( mi km ) Precip ( " mm )
12:53 am 00:53 Clear 42 5.6 16 -8.9 35 35 W 5 7 30.43 1031 10 16 N/A
1:53 am 01:53 Clear 41 5 17 -8.3 38 38 N N/A 30.45 1031 10 16 N/A
2:53 am 02:53 Clear 40 4.4 16 -8.9 38 38 NW 5 7 30.44 1031 10 16 N/A
3:53 am 03:53 Clear 39 3.9 16 -8.9 39 39 WNW 7 11 30.45 1031 10 16 N/A
4:53 am 04:53 Clear 37 2.8 17 -8.3 44 44 N N/A 30.45 1031 10 16 N/A
5:53 am 05:53 Clear 37 2.8 16 -8.9 42 42 N N/A 30.47 1032 10 16 N/A
6:53 am 06:53 Sunny 36 2.2 18 -7.8 48 48 W 5 7 30.48 1032 10 16 N/A
7:53 am 07:53 Sunny 39 3.9 19 -7.2 45 45 WNW 5 7 30.50 1033 10 16 N/A
8:53 am 08:53 Sunny 48 8.9 17 -8.3 29 29 NNE 7 11 30.49 1033 10 16 N/A
9:53 am 09:53 Sunny 51 10.6 17 -8.3 26 26 NE 5 7 30.49 1033 10 16 N/A
10:53 am 10:53 Sunny 53 11.7 17 -8.3 24 24 N N/A 30.46 1032 10 16 N/A
11:53 am 11:53 Sunny 54 12.2 18 -7.8 24 24 SSE 5 7 30.42 1030 10 16 N/A
12:53 pm 12:53 Sunny 56 13.3 17 -8.3 22 22 ESE 6 9 30.39 1029 10 16 N/A
1:53 pm 13:53 Sunny 58 14.4 17 -8.3 20 20 N N/A 30.37 1028 10 16 N/A
2:53 pm 14:53 Sunny 59 15 17 -8.3 19 19 ESE 5 7 30.35 1028 10 16 N/A
3:53 pm 15:53 Sunny 59 15 18 -7.8 20 20 E 3 6 30.34 1028 10 16 N/A
4:53 pm 16:53 Sunny 56 13.3 17 -8.3 22 22 ESE 3 6 30.35 1028 10 16 N/A
5:53 pm 17:53 Clear 55 12.8 17 -8.3 22 22 N N/A 30.35 1028 10 16 N/A
6:53 pm 18:53 Clear 50 10 20 -6.7 30 30 WNW 3 6 30.36 1028 10 16 N/A
7:53 pm 19:53 Clear 48 8.9 22 -5.6 36 36 NW 6 9 30.36 1028 10 16 N/A
8:53 pm 20:53 Clear 46 7.8 22 -5.6 38 38 WNW 6 9 30.35 1028 10 16 N/A
9:53 pm 21:53 Clear 45 7.2 22 -5.6 40 40 NW 6 9 30.35 1028 10 16 N/A
10:53 pm 22:53 Clear 45 7.2 22 -5.6 40 40 NW 7 11 30.35 1028 10 16 N/A
11:53 pm 23:53 Clear 42 5.6 23 -5 47 47 N N/A 30.35 1028 10 16 N/A

Powered by AerisWeather